| time (UTC) | temp F | wind direction | speed knots | gust knots | rain 1hr in | rain 24hr in | rain mn in | humidity % | barometer mb |
| 20260504194907 | 77 | 311 | 1.7 | 1.7 | 0.00 | 0.00 | 0.00 | 36 | 1005.1 |
| 20260504194402 | 76 | 2 | 0.9 | 1.7 | 0.00 | 0.00 | 0.00 | 35 | 1005.1 |
| 20260504193858 | 74 | 359 | 2.6 | 2.6 | 0.00 | 0.00 | 0.00 | 38 | 1005.2 |
| 20260504193356 | 74 | 4 | 0.0 | 0.0 | 0.00 | 0.00 | 0.00 | 37 | 1005.3 |
| 20260504192855 | 74 | 280 | 3.5 | 3.5 | 0.00 | 0.00 | 0.00 | 37 | 1005.5 |
| 20260504192352 | 73 | 331 | 0.9 | 0.9 | 0.00 | 0.00 | 0.00 | 37 | 1005.3 |
| 20260504191850 | 73 | 274 | 1.7 | 1.7 | 0.00 | 0.00 | 0.00 | 38 | 1005.4 |
| 20260504191348 | 73 | 328 | 0.9 | 1.7 | 0.00 | 0.00 | 0.00 | 37 | 1005.5 |
| 20260504190843 | 73 | 10 | 0.0 | 0.9 | 0.00 | 0.00 | 0.00 | 40 | 1005.6 |
| 20260504190339 | 73 | 322 | 1.7 | 1.7 | 0.00 | 0.00 | 0.00 | 39 | 1005.7 |
| 20260504185836 | 73 | 15 | 0.0 | 0.9 | 0.00 | 0.00 | 0.00 | 38 | 1005.9 |
| 20260504185333 | 73 | 48 | 1.7 | 2.6 | 0.00 | 0.00 | 0.00 | 39 | 1006.0 |
| 20260504184829 | 73 | 355 | 0.0 | 0.9 | 0.00 | 0.00 | 0.00 | 39 | 1006.1 |
| 20260504184325 | 73 | 321 | 0.9 | 1.7 | 0.00 | 0.00 | 0.00 | 38 | 1005.9 |
| 20260504183820 | 73 | 13 | 2.6 | 3.5 | 0.00 | 0.00 | 0.00 | 38 | 1006.1 |
| 20260504183318 | 74 | 346 | 0.9 | 1.7 | 0.00 | 0.00 | 0.00 | 35 | 1005.9 |
| 20260504182816 | 75 | 38 | 0.9 | 0.9 | 0.00 | 0.00 | 0.00 | 38 | 1006.0 |
| 20260504182313 | 75 | 335 | 1.7 | 2.6 | 0.00 | 0.00 | 0.00 | 35 | 1005.9 |
| 20260504181810 | 74 | 272 | 0.9 | 0.9 | 0.00 | 0.00 | 0.00 | 34 | 1005.8 |
| 20260504181307 | 75 | 231 | 3.5 | 3.5 | 0.00 | 0.00 | 0.00 | 34 | 1005.9 |
| 20260504180806 | 75 | 252 | 3.5 | 3.5 | 0.00 | 0.00 | 0.00 | 36 | 1006.1 |
| 20260504180305 | 74 | 329 | 2.6 | 2.6 | 0.00 | 0.00 | 0.00 | 40 | 1006.2 |
| 20260504175802 | 75 | 281 | 3.5 | 3.5 | 0.00 | 0.00 | 0.00 | 34 | 1006.5 |
| 20260504175259 | 74 | 336 | 0.9 | 0.9 | 0.00 | 0.00 | 0.00 | 35 | 1006.3 |
| 20260504174757 | 75 | 210 | 1.7 | 1.7 | 0.00 | 0.00 | 0.00 | 39 | 1006.4 |
| 20260504174254 | 74 | 125 | 1.7 | 1.7 | 0.00 | 0.00 | 0.00 | 39 | 1006.5 |
| 20260504173750 | 74 | 292 | 3.5 | 3.5 | 0.00 | 0.00 | 0.00 | 35 | 1006.5 |
| 20260504173248 | 75 | 337 | 1.7 | 1.7 | 0.00 | 0.00 | 0.00 | 36 | 1006.3 |
| 20260504172744 | 75 | 352 | 0.9 | 0.9 | 0.00 | 0.00 | 0.00 | 43 | 1006.7 |
| 20260504172241 | 73 | 320 | 0.9 | 0.9 | 0.00 | 0.00 | 0.00 | 40 | 1006.7 |
| 20260504171737 | 73 | 334 | 1.7 | 2.6 | 0.00 | 0.00 | 0.00 | 37 | 1006.8 |
| 20260504171234 | 74 | 284 | 0.9 | 0.9 | 0.00 | 0.00 | 0.00 | 35 | 1006.8 |
| 20260504170731 | 73 | 314 | 1.7 | 1.7 | 0.00 | 0.00 | 0.00 | 35 | 1007.1 |
| 20260504170229 | 74 | 296 | 2.6 | 2.6 | 0.00 | 0.00 | 0.00 | 40 | 1007.1 |
| 20260504160147 | 68 | 338 | 3.5 | 3.5 | 0.00 | 0.00 | 0.00 | 42 | 1008.2 |
| 20260504151114 | 69 | 116 | 2.6 | 3.5 | 0.00 | 0.00 | 0.00 | 37 | 1008.6 |
| 20260504150612 | 68 | 79 | 0.9 | 1.7 | 0.00 | 0.00 | 0.00 | 40 | 1008.5 |
| 20260504150109 | 68 | 277 | 1.7 | 2.6 | 0.00 | 0.00 | 0.00 | 45 | 1008.4 |
| 20260504141037 | 66 | 10 | 0.0 | 0.9 | 0.00 | 0.00 | 0.00 | 41 | 1008.5 |
| 20260504140534 | 65 | 35 | 0.9 | 0.9 | 0.00 | 0.00 | 0.00 | 41 | 1008.6 |
| 20260504130458 | 62 | 331 | 1.7 | 1.7 | 0.00 | 0.00 | 0.00 | 47 | 1009.1 |
| 20260504110345 | 42 | 8 | 0.0 | 0.0 | 0.00 | 0.00 | 0.00 | 89 | 1009.6 |
| 20260504100303 | 41 | 10 | 0.0 | 0.0 | 0.00 | 0.00 | 0.00 | 92 | 1009.9 |
| 20260504081656 | 40 | 11 | 0.0 | 0.0 | 0.00 | 0.00 | 0.00 | 87 | 1010.2 |
| 20260504081152 | 41 | 11 | 0.0 | 0.0 | 0.00 | 0.00 | 0.00 | 88 | 1010.2 |
| 20260504080649 | 40 | 11 | 0.0 | 0.0 | 0.00 | 0.00 | 0.00 | 88 | 1010.2 |
| 20260504080145 | 40 | 11 | 0.0 | 0.0 | 0.00 | 0.00 | 0.00 | 88 | 1010.0 |
| 20260504070114 | 39 | 11 | 0.0 | 0.0 | 0.00 | 0.00 | 0.00 | 90 | 1010.3 |
| 20260504050502 | 35 | 11 | 0.0 | 0.0 | 0.00 | 0.00 | 0.00 | 95 | 1011.5 |
| 20260504045959 | 35 | 11 | 0.0 | 0.0 | 0.00 | 0.00 | 0.00 | 96 | 1011.3 |
| 20260504045455 | 34 | 11 | 0.0 | 0.0 | 0.00 | 0.00 | 0.00 | 95 | 1011.2 |
| 20260504044951 | 33 | 11 | 0.0 | 0.0 | 0.00 | 0.00 | 0.00 | 95 | 1011.1 |
| 20260504044449 | 33 | 11 | 0.0 | 0.0 | 0.00 | 0.00 | 0.00 | 95 | 1011.2 |
| 20260504043946 | 33 | 11 | 0.0 | 0.0 | 0.00 | 0.00 | 0.00 | 95 | 1011.4 |
| 20260504043443 | 34 | 11 | 0.0 | 0.0 | 0.00 | 0.00 | 0.00 | 94 | 1011.2 |
| 20260504042940 | 34 | 11 | 0.0 | 0.0 | 0.00 | 0.00 | 0.00 | 94 | 1011.2 |
| 20260504042436 | 34 | 11 | 0.0 | 0.0 | 0.00 | 0.00 | 0.00 | 94 | 1011.2 |
| 20260504041933 | 34 | 11 | 0.0 | 0.0 | 0.00 | 0.00 | 0.00 | 94 | 1011.0 |
| 20260504041429 | 34 | 11 | 0.0 | 0.0 | 0.00 | 0.00 | 0.00 | 93 | 1011.4 |
| 20260504040925 | 34 | 11 | 0.0 | 0.0 | 0.00 | 0.00 | 0.00 | 93 | 1011.4 |
| 20260504040424 | 34 | 11 | 0.0 | 0.0 | 0.00 | 0.00 | 0.00 | 93 | 1011.4 |
| 20260504035919 | 34 | 11 | 0.0 | 0.0 | 0.00 | 0.00 | 0.00 | 93 | 1011.3 |
| 20260504035417 | 34 | 11 | 0.0 | 0.0 | 0.00 | 0.00 | 0.00 | 93 | 1011.5 |
| 20260504034913 | 34 | 11 | 0.0 | 0.0 | 0.00 | 0.00 | 0.00 | 93 | 1011.6 |
| 20260504034411 | 34 | 12 | 0.0 | 0.0 | 0.00 | 0.00 | 0.00 | 93 | 1011.5 |
| 20260504033908 | 35 | 12 | 0.0 | 0.0 | 0.00 | 0.00 | 0.00 | 93 | 1011.3 |
| 20260504033406 | 35 | 12 | 0.0 | 0.0 | 0.00 | 0.00 | 0.00 | 93 | 1011.2 |
| 20260504032902 | 35 | 11 | 0.0 | 0.0 | 0.00 | 0.00 | 0.00 | 92 | 1011.1 |
| 20260504032359 | 35 | 12 | 0.0 | 0.0 | 0.00 | 0.00 | 0.00 | 91 | 1011.2 |
| 20260504031856 | 36 | 12 | 0.0 | 0.0 | 0.00 | 0.00 | 0.00 | 90 | 1011.2 |
| 20260504031353 | 36 | 12 | 0.0 | 0.0 | 0.00 | 0.00 | 0.00 | 90 | 1011.1 |
| 20260504030849 | 36 | 12 | 0.0 | 0.0 | 0.00 | 0.00 | 0.00 | 88 | 1011.3 |
| 20260504030347 | 37 | 12 | 0.0 | 0.0 | 0.00 | 0.00 | 0.00 | 87 | 1011.1 |
| 20260504025843 | 37 | 12 | 0.0 | 0.0 | 0.00 | 0.00 | 0.00 | 88 | 1011.3 |
| 20260504025340 | 38 | 12 | 0.0 | 0.0 | 0.00 | 0.00 | 0.00 | 87 | 1011.3 |
| 20260504024836 | 38 | 13 | 0.0 | 0.0 | 0.00 | 0.00 | 0.00 | 84 | 1011.2 |
| 20260504024333 | 38 | 14 | 0.0 | 0.0 | 0.00 | 0.00 | 0.00 | 84 | 1011.4 |
| 20260504023830 | 39 | 1 | 0.0 | 0.0 | 0.00 | 0.00 | 0.00 | 86 | 1011.1 |
| 20260504023327 | 39 | 1 | 0.0 | 0.9 | 0.00 | 0.00 | 0.00 | 85 | 1011.1 |
| 20260504022822 | 39 | 2 | 0.0 | 0.0 | 0.00 | 0.00 | 0.00 | 84 | 1011.2 |
| 20260504022319 | 39 | 1 | 0.0 | 0.0 | 0.00 | 0.00 | 0.00 | 84 | 1011.2 |
| 20260504021816 | 39 | 1 | 0.0 | 0.0 | 0.00 | 0.00 | 0.00 | 85 | 1011.2 |
| 20260504021314 | 39 | 1 | 0.0 | 0.0 | 0.00 | 0.00 | 0.00 | 85 | 1011.3 |
| 20260504020810 | 39 | 7 | 0.0 | 0.0 | 0.00 | 0.00 | 0.00 | 86 | 1011.0 |
| 20260504020307 | 39 | 9 | 0.0 | 0.0 | 0.00 | 0.00 | 0.00 | 83 | 1011.1 |
| 20260504015803 | 39 | 345 | 0.9 | 0.9 | 0.00 | 0.00 | 0.00 | 84 | 1011.1 |
| 20260504015259 | 39 | 357 | 0.0 | 0.0 | 0.00 | 0.00 | 0.00 | 82 | 1011.0 |
| 20260504014755 | 40 | 357 | 0.0 | 0.0 | 0.00 | 0.00 | 0.00 | 83 | 1010.9 |
| 20260504014252 | 40 | 357 | 0.0 | 0.0 | 0.00 | 0.00 | 0.00 | 83 | 1010.9 |
| 20260504013749 | 40 | 356 | 0.0 | 0.0 | 0.00 | 0.00 | 0.00 | 84 | 1011.0 |
| 20260504013247 | 40 | 357 | 0.0 | 0.0 | 0.00 | 0.00 | 0.00 | 83 | 1010.6 |
| 20260504012743 | 41 | 358 | 0.0 | 0.0 | 0.00 | 0.00 | 0.00 | 81 | 1010.8 |
| 20260504012241 | 41 | 3 | 0.0 | 0.0 | 0.00 | 0.00 | 0.00 | 79 | 1010.6 |
| 20260504011738 | 41 | 2 | 0.0 | 0.0 | 0.00 | 0.00 | 0.00 | 82 | 1010.6 |
| 20260504011235 | 41 | 0 | 0.0 | 0.0 | 0.00 | 0.00 | 0.00 | 83 | 1010.5 |
| 20260504010731 | 41 | 350 | 0.0 | 0.0 | 0.00 | 0.00 | 0.00 | 83 | 1010.3 |
| 20260504010226 | 41 | 350 | 0.0 | 0.0 | 0.00 | 0.00 | 0.00 | 79 | 1010.4 |
| 20260504005723 | 42 | 350 | 0.0 | 0.0 | 0.00 | 0.00 | 0.00 | 81 | 1010.3 |
| 20260504005220 | 42 | 350 | 0.0 | 0.0 | 0.00 | 0.00 | 0.00 | 79 | 1010.3 |
| 20260504004718 | 43 | 350 | 0.0 | 0.0 | 0.00 | 0.00 | 0.00 | 76 | 1010.5 |
| 20260504004215 | 43 | 350 | 0.0 | 0.0 | 0.00 | 0.00 | 0.00 | 76 | 1010.3 |
| 20260504003712 | 44 | 350 | 0.0 | 0.0 | 0.00 | 0.00 | 0.00 | 71 | 1010.5 |
| 20260504003208 | 45 | 350 | 0.0 | 0.0 | 0.00 | 0.00 | 0.00 | 70 | 1010.2 |
| 20260504002705 | 45 | 350 | 0.0 | 0.0 | 0.00 | 0.00 | 0.00 | 71 | 1010.2 |
| 20260504002202 | 46 | 350 | 0.0 | 0.0 | 0.00 | 0.00 | 0.00 | 67 | 1010.1 |
| 20260504001700 | 47 | 350 | 0.0 | 0.0 | 0.00 | 0.00 | 0.00 | 67 | 1010.3 |
| 20260504001156 | 49 | 349 | 0.0 | 0.0 | 0.00 | 0.00 | 0.00 | 65 | 1010.3 |
| 20260504000653 | 50 | 348 | 0.0 | 0.0 | 0.00 | 0.00 | 0.00 | 59 | 1010.3 |
| 20260504000151 | 51 | 5 | 0.0 | 0.0 | 0.00 | 0.00 | 0.00 | 52 | 1010.1 |
| 20260503235649 | 52 | 1 | 0.0 | 0.0 | 0.00 | 0.00 | 0.00 | 47 | 1010.1 |
| 20260503235145 | 52 | 10 | 1.7 | 1.7 | 0.00 | 0.00 | 0.00 | 49 | 1010.1 |
| 20260503234643 | 54 | 349 | 0.0 | 0.0 | 0.00 | 0.00 | 0.00 | 47 | 1010.0 |
| 20260503234141 | 55 | 352 | 0.0 | 0.0 | 0.00 | 0.00 | 0.00 | 41 | 1009.9 |
| 20260503233638 | 55 | 18 | 0.9 | 1.7 | 0.00 | 0.00 | 0.00 | 37 | 1010.2 |
| 20260503233133 | 56 | 347 | 0.0 | 0.9 | 0.00 | 0.00 | 0.00 | 40 | 1010.3 |
| 20260503232630 | 56 | 7 | 0.0 | 0.0 | 0.00 | 0.00 | 0.00 | 38 | 1010.1 |
| 20260503232128 | 56 | 3 | 0.9 | 1.7 | 0.00 | 0.00 | 0.00 | 37 | 1010.3 |
| 20260503231626 | 57 | 341 | 0.9 | 0.9 | 0.00 | 0.00 | 0.00 | 34 | 1009.9 |
| 20260503231122 | 57 | 344 | 1.7 | 2.6 | 0.00 | 0.00 | 0.00 | 34 | 1010.2 |
| 20260503230619 | 57 | 340 | 0.0 | 0.9 | 0.00 | 0.00 | 0.00 | 33 | 1010.1 |
| 20260503230116 | 57 | 350 | 0.0 | 0.9 | 0.00 | 0.00 | 0.00 | 35 | 1010.1 |
| 20260503225614 | 58 | 333 | 1.7 | 1.7 | 0.00 | 0.00 | 0.00 | 36 | 1010.0 |
| 20260503225113 | 58 | 295 | 1.7 | 1.7 | 0.00 | 0.00 | 0.00 | 34 | 1010.0 |
| 20260503224611 | 58 | 1 | 0.0 | 0.0 | 0.00 | 0.00 | 0.00 | 33 | 1009.9 |
| 20260503224109 | 58 | 341 | 0.9 | 0.9 | 0.00 | 0.00 | 0.00 | 35 | 1009.9 |
| 20260503223607 | 59 | 309 | 1.7 | 2.6 | 0.00 | 0.00 | 0.00 | 34 | 1009.9 |
| 20260503223102 | 59 | 251 | 1.7 | 2.6 | 0.00 | 0.00 | 0.00 | 34 | 1009.9 |
| 20260503222600 | 59 | 286 | 1.7 | 2.6 | 0.00 | 0.00 | 0.00 | 34 | 1009.9 |
| 20260503222058 | 59 | 345 | 0.0 | 0.0 | 0.00 | 0.00 | 0.00 | 35 | 1009.8 |
| 20260503221555 | 59 | 296 | 2.6 | 3.5 | 0.00 | 0.00 | 0.00 | 34 | 1009.8 |
| 20260503221053 | 59 | 5 | 0.9 | 0.9 | 0.00 | 0.00 | 0.00 | 35 | 1009.9 |
| 20260503220549 | 59 | 356 | 0.0 | 0.0 | 0.00 | 0.00 | 0.00 | 34 | 1009.8 |
| 20260503220046 | 59 | 300 | 0.9 | 0.9 | 0.00 | 0.00 | 0.00 | 32 | 1009.9 |
| 20260503215543 | 59 | 11 | 1.7 | 1.7 | 0.00 | 0.00 | 0.00 | 32 | 1009.8 |
| 20260503215040 | 59 | 355 | 0.9 | 1.7 | 0.00 | 0.00 | 0.00 | 34 | 1010.0 |
| 20260503214538 | 60 | 281 | 2.6 | 2.6 | 0.00 | 0.00 | 0.00 | 33 | 1010.0 |
| 20260503214034 | 59 | 339 | 1.7 | 2.6 | 0.00 | 0.00 | 0.00 | 34 | 1009.8 |
| 20260503213533 | 60 | 314 | 1.7 | 1.7 | 0.00 | 0.00 | 0.00 | 33 | 1010.2 |
| 20260503213029 | 60 | 343 | 0.9 | 1.7 | 0.00 | 0.00 | 0.00 | 31 | 1010.0 |
| 20260503212527 | 60 | 210 | 1.7 | 2.6 | 0.00 | 0.00 | 0.00 | 31 | 1010.1 |
| 20260503212024 | 60 | 0 | 0.9 | 0.9 | 0.00 | 0.00 | 0.00 | 30 | 1009.9 |
| 20260503211521 | 60 | 264 | 2.6 | 3.5 | 0.00 | 0.00 | 0.00 | 34 | 1009.9 |
| 20260503211016 | 60 | 319 | 0.9 | 0.9 | 0.00 | 0.00 | 0.00 | 33 | 1009.7 |
| 20260503210513 | 60 | 260 | 1.7 | 1.7 | 0.00 | 0.00 | 0.00 | 34 | 1010.1 |
| 20260503210009 | 60 | 246 | 1.7 | 1.7 | 0.00 | 0.00 | 0.00 | 34 | 1010.1 |
| 20260503205506 | 61 | 307 | 0.0 | 0.9 | 0.00 | 0.00 | 0.00 | 32 | 1010.0 |
| 20260503205002 | 61 | 180 | 3.5 | 5.2 | 0.00 | 0.00 | 0.00 | 35 | 1010.1 |
| 20260503204459 | 60 | 226 | 1.7 | 1.7 | 0.00 | 0.00 | 0.00 | 35 | 1010.0 |
| 20260503203956 | 59 | 298 | 1.7 | 1.7 | 0.00 | 0.00 | 0.00 | 36 | 1009.9 |
| 20260503203454 | 59 | 213 | 3.5 | 5.2 | 0.00 | 0.00 | 0.00 | 33 | 1010.0 |
| 20260503202950 | 59 | 306 | 3.5 | 6.1 | 0.00 | 0.00 | 0.00 | 34 | 1010.3 |
| 20260503202448 | 60 | 294 | 0.9 | 1.7 | 0.00 | 0.00 | 0.00 | 34 | 1010.2 |
| 20260503201947 | 60 | 12 | 1.7 | 1.7 | 0.00 | 0.00 | 0.00 | 32 | 1010.2 |
| 20260503201444 | 60 | 293 | 1.7 | 2.6 | 0.00 | 0.00 | 0.00 | 34 | 1010.5 |
| 20260503200941 | 60 | 215 | 1.7 | 1.7 | 0.00 | 0.00 | 0.00 | 33 | 1010.4 |
| 20260503200437 | 60 | 20 | 0.9 | 0.9 | 0.00 | 0.00 | 0.00 | 31 | 1010.4 |
| 20260503195934 | 59 | 12 | 2.6 | 3.5 | 0.00 | 0.00 | 0.00 | 34 | 1010.5 |
| 20260503195431 | 60 | 337 | 3.5 | 6.1 | 0.00 | 0.00 | 0.00 | 34 | 1010.4 |